Location: Bushrod
(6.3500°N, 10.7833°W)
Time: 00:52:42
(UTC+00:00)

Cosmos 2237 - Pass Details

Date: 17 September 2019
Orbit: 845 x 858 km, 70.8° (Epoch: 12 October)

Event Time Altitude Azimuth Distance (km) Brightness Sun altitude
Rises 20:29:38 0° 338° (NNW) 3,416 7.7 -27.5°
Reaches altitude 10° 20:32:06 10° 336° (NNW) 2,481 7.0 -28.1°
Maximum altitude 20:37:44 65° 255° (WSW) 938 4.5 -29.5°
Enters shadow 20:38:54 52° 203° (SSW) 1,051 4.7 -29.8°
